Location: Paderno d�Adda
(45.6667°N, 9.4333°E)
Time: 14:11:34
(UTC+00:00)

Cosmos 1844 Rocket - Pass Details

Date: 19 September 2020
Orbit: 823 x 846 km, 71.0° (Epoch: 29 October)

Event Time Altitude Azimuth Distance (km) Brightness Sun altitude
Rises 19:20:28 0° 202° (SSW) 3,344 5.8 -20.4°
Reaches altitude 10° 19:22:52 10° 202° (SSW) 2,416 5.0 -20.8°
Maximum altitude 19:28:25 84° 114° (ESE) 836 2.5 -21.6°
Drops below altitude 10° 19:34:01 10° 27° (NNE) 2,443 5.1 -22.5°
Sets 19:36:28 0° 27° (NNE) 3,383 5.8 -22.9°
